Find Starlink 5476

NORAD ID: 57258 Int'l Des: 2023-094 Owner: SPXS Country: US Constellation: starlink operational
LEOCIRCULAR

Current View

Loading 3D Globe...

About Starlink 5476

Description loading...

Upcoming Passes

Passes for default location (London). Set your location on the main map for personalized predictions.

Altitude History

Loading altitude history...

Two-Line Element Set

1 57258U 23094AS 26150.69529749 .00000204 00000-0 16928-4 0 9996
2 57258 43.0027 276.5872 0001503 275.8054 84.2627 15.27577637159781
Epoch: May 30, 2026 • Age: 20 hours

Current Status

Altitude 483.2 km
Velocity 7.63 km/s
Sub-Earth Point -4.14°S, 177.6°W
Launch Date Jul 7, 2023
Age 2.8 years
Type internet

Technical Details

Classification Payload
Mass 305.00 kg
Dry Mass 290.00 kg
Total Mass 305.00 kg
Length 0.20 m
Diameter 2.80 m
Span 9.00 m
Shape Box + pan
Manufacturer SPXS
Bus Type Starlink
Phase Status In Orbit
Owner/State SPXS/US

Most Searched